User: anonymous   Login
Location: Unspecified
(0.0000°N, 0.0000°E)
Time: 21:18:22
(UTC+00:00)
Language:

AO-40 - Orbit

View from above orbital plane
View from above orbital plane
View from above satellite
View from above satellite

Ground track
Ground track

The orbit data is extracted from the following two-line orbital elements,

1 26609U 00072B   19315.39400614 -.00000010 +00000-0 +00000-0 0  9990
2 26609 009.3417 052.6861 7949733 080.9636 351.8688 01.25585929087247
Epoch (UTC): 11 November 2019 09:27:22
Eccentricity: 0.7949733
inclination: 9.3417°
perigee height: 1062 km
apogee height: 58759 km
right ascension of ascending node: 52.6861°
argument of perigee: 80.9636°
revolutions per day: 1.25585929
mean anomaly at epoch: 351.8688°
orbit number at epoch: 8724

The dashed part of the orbit path shows where the satellite is in the earth's shadow,  

DLR